Flag for U.S.A. Weather past 2 weeks in Fairbanks, Alaska, U.S.A.

Now
-4 °F

Clear.


Feels Like: -4 °F
Forecast: -10 / -5 °F
Wind: No wind

Location: Wainwright U. S. Army Airfield

Current Time: Dec 22, 2014 at 12:17:04 AM

Latest Report: Dec 21, 2014 at 11:56 PM


Visibility: 10 mi

Pressure: 29.66 "Hg

Humidity: N/A

Dew point: N/A

Location of FairbanksLocation

Historic Weather in Fairbanks — Graph

°F

Fairbanks temperature yesterday

Maximum temperature yesterday: 3 °F (at 4:56 AM)
Minimum temperature yesterday: -7 °F (at 3:56 PM)
Average temperature yesterday: -3 °F

Past Weeks' High & Low Weather Summary

 TemperatureHumidityPressure
High21 °F (Dec 18, 1:56 AM)93% (Dec 16, 6:55 AM)30.39 "Hg (Dec 16, 6:55 AM)
Low-11 °F (Dec 20, 4:56 PM)52% (Dec 11, 4:55 PM)29.09 "Hg (Dec 8, 10:56 PM)
Average8 °F76%29.40 "Hg
* Reported Dec 6 10:56 PM — Dec 21 10:56 PM, Fairbanks, Weather by CustomWeather, © 2014

Note: Actual official high and low records may vary slightly from our data, if they occured in-between our weather recording intervals... More about our weather records

Advertising

Fairbanks weather history for previous 24 hours

 ConditionsComfort  
Time TempWeatherWind HumidityBarometerVisibility
10:56 PM
Dec 21
-5 °FClear.No wind75%29.63 "Hg10 mi
9:56 PM-5 °FClear.No wind72%29.59 "Hg10 mi
8:56 PM-6 °FClear.3 mph71%29.56 "Hg10 mi
7:56 PM-7 °FClear.No wind71%29.54 "Hg10 mi
6:56 PM-7 °FClear.No wind71%29.51 "Hg10 mi
5:56 PM-6 °FClear.No wind71%29.47 "Hg10 mi
4:56 PM-6 °FClear.No wind67%29.44 "Hg10 mi
3:56 PM-7 °FClear.No wind75%29.42 "Hg10 mi
2:56 PM-6 °FClear.No wind71%29.41 "Hg10 mi
1:56 PM-6 °FSunny.No wind78%29.38 "Hg10 mi
12:56 PM-4 °FSunny.No windN/A29.35 "Hg10 mi
11:56 AM-6 °FSunny.No wind75%29.33 "Hg10 mi
10:56 AM-3 °FClear.3 mph75%29.30 "Hg10 mi
9:56 AM0 °FClear.No wind71%29.26 "Hg10 mi
8:56 AM1 °FClear.5 mph72%29.23 "Hg10 mi
7:56 AM2 °FClear.5 mph76%29.21 "Hg10 mi
6:56 AM2 °FClear.6 mph76%29.18 "Hg10 mi
5:56 AM3 °FClear.No wind76%29.17 "Hg10 mi
4:56 AM3 °FClear.No wind76%29.15 "Hg10 mi
3:56 AM1 °FClear.No wind79%29.14 "Hg10 mi
2:56 AM2 °FClear.3 mph76%29.13 "Hg10 mi
1:56 AM-1 °FClear.No wind75%29.14 "Hg10 mi
12:56 AM0 °FOvercast.No wind79%29.12 "Hg10 mi
Weather by CustomWeather, © 2014

See weather overviewHow to use our weather pages